STARLINK-37688, 69372

Orbit data source: Space-Track

STARLINK-37688, 69372 is a payload satellite owned by SpaceX/Seattle (US) in LEO that was launched on Thu, 04 Jun 2026 UTC via an FALCON 9 launch vehicle from the Air Force Eastern Test Range (AFETR). Payload-class satellites include a variety of spacecraft equipped with specific instruments for various scientific and technological missions. These include communications satellites like Starlink; space stations such as the ISS; scientific satellites like the Hubble; Earth observation satellites from companies like Planet Labs, Umbra, and HawkEye 360; GPS; miniature CubeSats for education and research; and military/defense satellites.

Loading next visibility...
Identifier
69372, 2026-123V
Orbit
LEO
Country
Flag of USUS
Related business
Manufacturer
SpaceX/Seattle
Mission
Operational spacecraft
Bus & Motor
STARLINK V2MO, Unknown motor
Mass
575 kg wet, ~530 kg dry
Launch date (UTC)
2026-06-04 (2 months ago)
Launch vehicle
FALCON 9
Launch site
Air Force Eastern Test Range (AFETR)
Object type
Payload
Rocket body
Debris
Shape & HBR
Unknown shape, 17.7 m
Radar Cross Section
Large (>1 m²)

Expand to show TLE details & history
Last TLE update: 19 hours ago

TLE from 19 hours ago
0 STARLINK-37688
1 69372U 26123V   26201.90484309  .00163589  00000-0  10502-2 0  9991
2 69372  53.1590  73.2491 0000978  83.6092 276.5039 15.75253055  7366
Epoch: 2026-07-20T21:42Z
TLE epoch observation values (Epoch: 2026-07-20T21:42:58.442Z)
Latitude
-0.0001°
Longitude
168.82333°
Altitude
344.754 km
Speed
7.703 km/s
True Right ascension
04h 52m 59s
True Declination
0° 00' 00"
Sunlit
Object was in daylight at epoch
Visualization orbit readout
Latitude
Unknown
Longitude
Unknown
Altitude
Unknown
Speed
Unknown
Apparent Right ascension
Unknown
Apparent Declination
Unknown
Sunlit
N/A
Visualization observer readout
Local Sidereal Time
05:10:50
Azimuth
Unknown
Elevation
Unknown
Doppler factor
Unknown
Orbital elements
Apogee altitude
344.83 km
Perigee altitude
343.515 km
Semi-major axis
6,722.31 km
Eccentricity
0.0001
Inclination
53.159°
RAAN
73.2491°
Arg. of periapsis
83.6092°
True anomaly
276.49276°
Mean anomaly
276.5039°
Eccentric anomaly
276.49833°
Mean motion
3.93791 °/min
Orbital period
91.42 mins
BSTAR
0.0010502
Loading maneuver chart data...
Computing Atmospheric mass density...
Loading historical data...
Loading historical data...
Loading historical data...
Loading historical data...
Loading historical data...
Loading historical data...
Loading historical data...

Documentation

Showing up to 5 results
|